Regional Weather Roundup
Issued by NWS

Home | Current Version | Previous Version | Text Only | Print | Product List | Glossary On
Versions: 1 2 3 4 5 6 7 8 9 10 11 12 13 14 15 16 17 18 19 20 21 22 23 24 25 26 27
000
ASCA42 TJSJ 261010
RWRPR
PUERTO RICO/U.S. VIRGIN ISLANDS HOURLY WEATHER ROUNDUP
NATIONAL WEATHER SERVICE SAN JUAN PR
600 AM AST THU MAY 26 2016

PRZ001-004-261100-
PUERTO RICO

CITY           SKY/WX    TMP DP  RH WIND       PRES   REMARKS
SAN JUAN LMM   MOCLDY    79  72  78 CALM      30.01R
CEIBA          CLEAR     79  70  73 CALM      30.03R
$$

PRZ006-007-261100-
U.S. VIRGIN ISLANDS

CITY           SKY/WX    TMP DP  RH WIND       PRES   REMARKS
CHARLOTTE AMA  CLEAR     79  72  78 NE3       30.00R
CHRISTIANSTED  CLEAR     73  70  88 N5        30.00R
$$

HOURLY WEATHER ROUNDUP FOR THE NEWS MEDIA

CITY           SKY/WX    TMP DP  RH WIND       PRES   REMARKS
ORLANDO        CLEAR     71  60  68 CALM      30.16R
NEW YORK       MOCLDY    63  56  78 SW7       30.10R
NEWARK         PTCLDY    65  52  62 SW6       30.09R
CHICAGO        PTCLDY    67  65  93 S9        29.87F
HARTFORD       PTCLDY    59  53  80 CALM      30.07R
BOSTON         PTCLDY    65  54  67 CALM      30.07R
DALLAS         CLOUDY    78  72  81 S13       29.92R
PHILADELPHIA   CLOUDY    64  55  72 W6        30.12R
LOS ANGELES    PTCLDY    58  53  84 SW3       30.05F
WASHINGTON DC  MOCLDY    57  55  93 CALM      30.12S



USA.gov is the U.S. government's official web portal to all federal, state and local government web resources and services.